Погода в Сябреницах

Россия / Новгородская область     59°08′17″N   31°37′33″E
темп.,
°C
ветер,
м/с
пор.,
м/с
влажн.,
%
обл.,
%
осадки,
мм/ч
давл.,
гПа
погр.,
м
18 апреля, вс
вс1800:00+6св310795 0.0 1029310
03:00+4св39920 0.0 1029247
06:00+3св39925 0.0 1029228
09:00+8всв47645 0.0 1029450
12:00+12всв57445 0.0 10281633
15:00+14всв57375 0.0 10282081
18:00+13всв464399 0.0 10271900
21:00+9всв386495 0.0 1029224
19 апреля, пн
пн1900:00+6всв3975100 0.0 1030262
03:00+4всв3986100 0.0 1030243
06:00+3св289444 0.0 1030217
09:00+7всв46630 0.0 1031622
12:00+11всв46425 0.0 10301371
15:00+12всв45365 0.0 10291772
18:00+11в45385 0.0 10281800
21:00+6всв39571 0.0 1028203
20 апреля, вт
вт2000:00+3в210665 0.0 1029238
03:00+2в287255 0.0 1028188
06:00+1всв28795 0.0 1027185
09:00+6в484768 0.0 1026819
12:00+8вюв5737100 0.0 10241468
15:00+10вюв474288 0.0 10231750
18:00+8вюв476276 0.0 10211143
21:00+6вюв498095 0.0 1020924
21 апреля, ср
ср2100:00+5св2783100 0.0 1018296
03:00+5всв3876100 0.0 1015354
06:00+5всв41075100 0.0 1012492
09:00+3всв41194100 0.9 1009670
12:00+3всв4992100 2.5 1007787
15:00+4в3591100 2.9 1005594
18:00+2всв2598100 1.1 1004332
21:00+2ссв1299100 1.1 1004316
22 апреля, чт
чт2200:00+2сз1399100 0.1 1005349
03:00+2з2598100 0.4 1006538
06:00+2з3797100 0.8 1008336
09:00+3зюз4791100 0.9 1011752
12:00+5зюз4779100 0.1 10141051
15:00+9зюз4665100 0.2 10171402
18:00+7зюз2677100 0.1 1019337
21:00+5ююз218573 0.1 102119